FW9434 Weather Reports


time (UTC)temp
C
wind
direction
speed
KPH
gust
KPH
rain 1hr
cm
rain 24hr
cm
rain mn
cm
humidity
%
barometer
mb
20260506162541 16 142 1.6 3.2 0.30 0.08 0.08 92 1009.6
20260506162033 16 142 3.2 3.2 0.30 0.05 0.05 91 1009.3
20260506161531 17 137 3.2 3.2 0.18 0.03 0.03 90 1009.6
20260506161028 17 127 1.6 3.2 0.00 0.00 0.00 88 1009.6
20260506160525 17 138 3.2 3.2 0.00 0.00 0.00 86 1009.7
20260506160022 17 131 1.6 1.6 0.00 0.00 0.00 85 1009.7
20260506155520 17 149 3.2 3.2 0.00 0.00 0.00 84 1009.7
20260506153652 18 175 4.8 8.0 0.00 0.00 0.00 77 1009.5
20260506153149 18 145 8.0 9.7 0.00 0.00 0.00 77 1009.7
20260506152646 19 159 4.8 8.0 0.00 0.00 0.00 76 1009.7
20260506152143 18 234 6.4 9.7 0.00 0.00 0.00 75 1009.5
20260506151642 18 135 4.8 8.0 0.00 0.00 0.00 76 1009.5
20260506151138 19 125 0.0 1.6 0.00 0.00 0.00 76 1009.4
20260506150635 18 177 4.8 4.8 0.00 0.00 0.00 75 1009.6
20260506150132 19 107 4.8 8.0 0.00 0.00 0.00 74 1009.8
20260506145629 20 230 1.6 3.2 0.00 0.00 0.00 73 1009.9
20260506145126 20 142 1.6 3.2 0.00 0.00 0.00 73 1009.6
20260506144624 20 125 3.2 4.8 0.00 0.00 0.00 73 1009.7
20260506144120 20 151 4.8 8.0 0.00 0.00 0.00 73 1009.7
20260506143618 20 193 3.2 4.8 0.00 0.00 0.00 72 1009.6
20260506143116 20 171 1.6 3.2 0.00 0.00 0.00 73 1009.9
20260506142614 20 210 4.8 8.0 0.00 0.00 0.00 71 1009.6
20260506142112 19 177 1.6 3.2 0.00 0.00 0.00 73 1009.6
20260506141609 19 169 3.2 3.2 0.00 0.00 0.00 74 1009.6
20260506141107 19 131 0.0 1.6 0.00 0.00 0.00 75 1009.5
20260506140604 19 219 3.2 3.2 0.00 0.00 0.00 74 1009.9
20260506135558 19 175 3.2 4.8 0.00 0.00 0.00 74 1009.8
20260506135054 19 142 3.2 3.2 0.00 0.00 0.00 74 1009.6
20260506134551 19 162 6.4 8.0 0.00 0.00 0.00 74 1009.8
20260506134047 19 185 4.8 9.7 0.00 0.00 0.00 74 1009.9
20260506133544 19 127 6.4 9.7 0.00 0.00 0.00 74 1009.9
20260506133041 18 136 3.2 4.8 0.00 0.00 0.00 75 1009.9
20260506132538 19 169 1.6 3.2 0.00 0.00 0.00 74 1009.9
20260506131434 18 171 3.2 8.0 0.00 0.00 0.00 75 1010.0
20260506130931 18 171 3.2 8.0 0.00 0.00 0.00 75 1010.0
20260506130427 18 199 3.2 3.2 0.00 0.00 0.00 75 1010.0
20260506125926 18 142 1.6 1.6 0.00 0.00 0.00 76 1009.9
20260506125424 18 95 6.4 11.3 0.00 0.00 0.00 75 1009.7
20260506124922 18 177 6.4 9.7 0.00 0.00 0.00 75 1009.7
20260506124419 18 178 4.8 8.0 0.00 0.00 0.00 76 1009.7
20260506123917 18 127 4.8 4.8 0.00 0.00 0.00 76 1009.5
20260506123414 18 136 8.0 11.3 0.00 0.00 0.00 77 1009.3
20260506122911 18 174 8.0 9.7 0.00 0.00 0.00 77 1009.5
20260506122408 18 168 6.4 8.0 0.00 0.00 0.00 78 1009.6
20260506121907 18 118 3.2 3.2 0.00 0.00 0.00 79 1009.7
20260506121403 17 135 3.2 3.2 0.00 0.00 0.00 79 1010.0
20260506120900 17 125 1.6 3.2 0.00 0.00 0.00 79 1010.1
20260506120358 17 186 3.2 4.8 0.00 0.00 0.00 79 1009.9
20260506115855 17 80 4.8 4.8 0.00 0.00 0.00 79 1009.9
20260506115353 18 265 6.4 9.7 0.00 0.00 0.00 79 1010.1
20260506114851 18 244 4.8 8.0 0.00 0.00 0.00 79 1010.3
20260506114348 18 152 4.8 4.8 0.00 0.00 0.00 79 1010.2
20260506113847 18 164 4.8 9.7 0.00 0.00 0.00 79 1009.9
20260506113344 17 142 6.4 9.7 0.00 0.00 0.00 80 1010.1
20260506112840 17 195 8.0 9.7 0.00 0.00 0.00 81 1010.1
20260506112338 17 187 6.4 8.0 0.00 0.00 0.00 81 1010.0
20260506111835 17 158 12.9 14.5 0.00 0.00 0.00 81 1010.1
20260506111333 17 158 6.4 8.0 0.00 0.00 0.00 81 1009.9
20260506110830 17 149 6.4 8.0 0.00 0.00 0.00 81 1009.9
20260506110327 17 137 8.0 9.7 0.00 0.00 0.00 81 1009.9
20260506105824 17 136 6.4 8.0 0.00 0.00 0.00 81 1009.7
20260506105320 17 127 8.0 9.7 0.00 0.00 0.00 82 1009.9
20260506104818 17 185 9.7 11.3 0.00 0.00 0.00 82 1009.9
20260506104316 17 177 3.2 3.2 0.00 0.00 0.00 82 1009.8
20260506103813 17 164 1.6 3.2 0.00 0.00 0.00 82 1009.8
20260506103311 17 159 4.8 4.8 0.00 0.00 0.00 82 1009.5
20260506102808 17 145 1.6 1.6 0.00 0.00 0.00 82 1009.7
20260506102306 17 138 3.2 4.8 0.00 0.00 0.00 82 1010.0
20260506101803 17 149 6.4 9.7 0.00 0.00 0.00 83 1009.8
20260506101259 17 163 4.8 8.0 0.00 0.00 0.00 82 1009.7
20260506100757 17 134 4.8 4.8 0.00 0.00 0.00 82 1009.6
20260506100255 17 142 3.2 3.2 0.00 0.00 0.00 82 1009.6
20260506095753 17 175 4.8 4.8 0.00 0.00 0.00 82 1009.5
20260506095249 17 142 8.0 9.7 0.00 0.00 0.00 82 1009.6
20260506094746 17 149 4.8 8.0 0.00 0.00 0.00 82 1009.4
20260506094245 17 137 4.8 4.8 0.00 0.00 0.00 83 1009.6
20260506093743 17 142 4.8 4.8 0.00 0.00 0.00 83 1009.3
20260506093240 17 175 4.8 4.8 0.00 0.00 0.00 83 1009.4
20260506092737 17 145 3.2 4.8 0.00 0.00 0.00 83 1009.5
20260506092235 17 169 4.8 4.8 0.00 0.00 0.00 83 1009.6
20260506091732 17 138 3.2 3.2 0.00 0.00 0.00 83 1009.8
20260506091230 17 196 3.2 4.8 0.00 0.00 0.00 83 1009.8
20260506090727 17 142 1.6 3.2 0.00 0.00 0.00 83 1009.7
20260506090224 17 145 1.6 3.2 0.00 0.00 0.00 83 1009.7
20260506085721 17 164 6.4 8.0 0.00 0.00 0.00 82 1009.7
20260506085217 17 149 6.4 8.0 0.00 0.00 0.00 82 1009.8
20260506084714 17 180 6.4 8.0 0.00 0.00 0.00 82 1009.8
20260506084210 17 142 4.8 8.0 0.00 0.00 0.00 82 1009.8
20260506083707 17 152 4.8 4.8 0.00 0.00 0.00 82 1009.9
20260506083205 17 168 8.0 11.3 0.00 0.00 0.00 81 1009.8
20260506082702 17 186 8.0 9.7 0.00 0.00 0.00 81 1009.9
20260506082202 17 141 6.4 8.0 0.00 0.00 0.00 81 1009.8
20260506081700 17 142 3.2 3.2 0.00 0.00 0.00 81 1010.0
20260506081158 17 151 3.2 4.8 0.00 0.00 0.00 81 1009.9
20260506080656 17 149 3.2 3.2 0.00 0.00 0.00 81 1009.7
20260506080152 17 122 3.2 3.2 0.00 0.00 0.00 80 1010.0
20260506073136 17 113 4.8 9.7 0.00 0.00 0.00 79 1009.9
20260506072632 18 159 3.2 4.8 0.00 0.00 0.00 79 1010.1
20260506072131 18 169 6.4 8.0 0.00 0.00 0.00 78 1009.8
20260506071628 18 159 6.4 8.0 0.00 0.00 0.00 78 1009.8
20260506071126 18 150 4.8 4.8 0.00 0.00 0.00 78 1009.9
20260506070622 18 152 6.4 8.0 0.00 0.00 0.00 77 1009.9
20260506070119 18 162 4.8 4.8 0.00 0.00 0.00 77 1010.1
20260506062056 18 155 4.8 4.8 0.00 0.00 0.00 75 1010.1
20260506061552 18 123 6.4 8.0 0.00 0.00 0.00 75 1010.4
20260506061050 18 151 4.8 4.8 0.00 0.00 0.00 74 1010.0
20260506060549 18 114 4.8 4.8 0.00 0.00 0.00 74 1010.3
20260506051017 18 159 3.2 4.8 0.00 0.00 0.00 71 1010.6
20260506050515 18 168 4.8 8.0 0.00 0.00 0.00 71 1010.8
20260506045005 18 118 6.4 8.0 0.00 0.00 0.00 70 1010.8
20260506044504 18 135 3.2 3.2 0.00 0.00 0.00 69 1010.9
20260506044000 18 143 4.8 8.0 0.00 0.00 0.00 70 1010.7
20260506043457 18 120 3.2 4.8 0.00 0.00 0.00 70 1010.9
20260506042955 19 142 1.6 3.2 0.00 0.00 0.00 69 1010.9
20260506042455 19 127 3.2 3.2 0.00 0.00 0.00 69 1010.6
20260506041952 19 159 4.8 4.8 0.00 0.00 0.00 68 1010.4
20260506041450 19 149 3.2 3.2 0.00 0.00 0.00 68 1010.7
20260506040947 19 118 3.2 4.8 0.00 0.00 0.00 68 1010.7
20260506040444 19 142 4.8 8.0 0.00 0.00 0.00 67 1010.9
20260506035940 19 187 4.8 9.7 0.00 0.00 0.00 67 1010.7
20260506035438 19 173 6.4 9.7 0.00 0.00 0.00 67 1010.8
20260506034934 19 137 4.8 4.8 0.00 0.00 0.00 66 1010.8
20260506034431 19 180 4.8 4.8 0.00 0.00 0.00 67 1010.4
20260506033929 19 103 1.6 3.2 0.00 0.00 0.00 66 1010.8
20260506033426 20 112 3.2 3.2 0.00 0.00 0.00 66 1010.8
20260506032922 19 180 8.0 11.3 0.00 0.00 0.00 66 1010.8
20260506032420 20 165 6.4 8.0 0.00 0.00 0.00 65 1010.6
20260506031916 19 129 4.8 9.7 0.00 0.00 0.00 65 1010.8
20260506031414 20 137 6.4 9.7 0.00 0.00 0.00 65 1010.8
20260506030911 20 121 4.8 4.8 0.00 0.00 0.00 65 1010.8
20260506030409 20 145 4.8 4.8 0.00 0.00 0.00 65 1010.6
20260506025906 20 118 6.4 8.0 0.00 0.00 0.00 64 1010.5
20260506025403 20 137 6.4 8.0 0.00 0.00 0.00 65 1010.7
20260506024859 20 142 3.2 4.8 0.00 0.00 0.00 64 1010.7
20260506024356 20 138 8.0 11.3 0.00 0.00 0.00 64 1010.7
20260506023852 20 158 8.0 11.3 0.00 0.00 0.00 63 1010.7
20260506023349 20 181 4.8 8.0 0.00 0.00 0.00 62 1010.7
20260506022846 21 174 6.4 9.7 0.00 0.00 0.00 62 1010.6
20260506022343 21 136 3.2 4.8 0.00 0.00 0.00 61 1010.7
20260506021841 21 142 0.0 3.2 0.00 0.00 0.00 60 1010.4
20260506021338 21 201 6.4 9.7 0.00 0.00 0.00 59 1010.4
20260506020834 21 144 4.8 4.8 0.00 0.00 0.00 59 1010.3
20260506020333 21 142 4.8 4.8 0.00 0.00 0.00 58 1010.4
20260506015830 21 193 12.9 14.5 0.00 0.00 0.00 57 1010.6
20260506015327 21 189 9.7 16.1 0.00 0.00 0.00 57 1010.6
20260506014824 22 167 14.5 20.9 0.00 0.00 0.00 56 1010.2
20260506014321 22 169 8.0 9.7 0.00 0.00 0.00 55 1010.4
20260506013817 22 198 6.4 9.7 0.00 0.00 0.00 54 1010.4
20260506013315 22 164 4.8 9.7 0.00 0.00 0.00 53 1010.4
20260506012811 22 179 11.3 12.9 0.00 0.00 0.00 53 1010.3
20260506012308 22 142 1.6 3.2 0.00 0.00 0.00 51 1010.2
20260506011806 22 172 4.8 8.0 0.00 0.00 0.00 50 1010.1
20260506011302 22 177 8.0 9.7 0.00 0.00 0.00 49 1010.0
20260506010800 23 167 3.2 4.8 0.00 0.00 0.00 48 1009.8
20260506010257 23 149 12.9 14.5 0.00 0.00 0.00 48 1009.9
20260506005754 23 171 9.7 12.9 0.00 0.00 0.00 46 1009.9
20260506005251 23 179 6.4 11.3 0.00 0.00 0.00 47 1009.7
20260506004747 23 146 4.8 8.0 0.00 0.00 0.00 46 1009.7
20260506004245 23 151 6.4 8.0 0.00 0.00 0.00 46 1009.7
20260506003740 23 193 9.7 11.3 0.00 0.00 0.00 46 1009.7
20260506003237 23 138 8.0 9.7 0.00 0.00 0.00 45 1009.3
20260506002733 24 159 8.0 9.7 0.00 0.00 0.00 45 1009.5
20260506002229 24 155 11.3 14.5 0.00 0.00 0.00 44 1009.5
20260506001725 24 190 9.7 14.5 0.00 0.00 0.00 45 1009.7
20260506001223 24 193 8.0 9.7 0.00 0.00 0.00 44 1009.4
20260506000720 24 140 17.7 20.9 0.00 0.00 0.00 43 1009.2
20260506000219 25 191 11.3 14.5 0.00 0.00 0.00 43 1009.4
20260505235714 25 131 6.4 9.7 0.00 0.00 0.00 42 1009.2
20260505235213 25 155 4.8 9.7 0.00 0.00 0.00 42 1009.5
20260505234709 25 120 6.4 8.0 0.00 0.00 0.00 40 1008.9
20260505234206 25 180 8.0 9.7 0.00 0.00 0.00 39 1009.3
20260505233702 25 137 6.4 9.7 0.00 0.00 0.00 39 1008.9
20260505233200 25 170 3.2 4.8 0.00 0.00 0.00 39 1009.0
20260505232658 25 123 6.4 11.3 0.00 0.00 0.00 38 1008.9
20260505232155 25 162 6.4 8.0 0.00 0.00 0.00 37 1008.7
20260505231652 25 98 1.6 8.0 0.00 0.00 0.00 38 1008.7
20260505231151 25 117 1.6 1.6 0.00 0.00 0.00 37 1008.8
20260505230648 25 113 4.8 4.8 0.00 0.00 0.00 37 1008.9
20260505230145 25 138 8.0 11.3 0.00 0.00 0.00 37 1008.6
20260505225641 25 142 8.0 9.7 0.00 0.00 0.00 36 1008.3
20260505225137 25 162 9.7 12.9 0.00 0.00 0.00 36 1008.4
20260505224634 25 131 8.0 9.7 0.00 0.00 0.00 35 1008.6
20260505224132 26 141 9.7 16.1 0.00 0.00 0.00 35 1008.3
20260505223629 26 181 3.2 4.8 0.00 0.00 0.00 34 1008.4
20260505223125 26 125 4.8 8.0 0.00 0.00 0.00 34 1008.2
20260505222621 26 144 4.8 8.0 0.00 0.00 0.00 34 1008.3
20260505222117 26 197 4.8 4.8 0.00 0.00 0.00 33 1008.7
20260505221614 26 144 6.4 9.7 0.00 0.00 0.00 34 1008.3
20260505221111 26 193 6.4 9.7 0.00 0.00 0.00 33 1008.5
20260505220609 26 176 8.0 9.7 0.00 0.00 0.00 32 1008.4
20260505220106 26 120 3.2 8.0 0.00 0.00 0.00 35 1008.2
20260505215604 26 151 0.0 1.6 0.00 0.00 0.00 33 1008.4
20260505215101 26 170 6.4 9.7 0.00 0.00 0.00 33 1008.1
20260505214600 26 76 6.4 8.0 0.00 0.00 0.00 32 1008.2
20260505214056 26 162 8.0 11.3 0.00 0.00 0.00 32 1008.0
20260505213554 27 107 6.4 9.7 0.00 0.00 0.00 32 1007.9
20260505213050 27 265 9.7 12.9 0.00 0.00 0.00 31 1007.8
20260505212546 27 315 6.4 9.7 0.00 0.00 0.00 32 1008.0
20260505212044 27 66 4.8 8.0 0.00 0.00 0.00 33 1007.9
20260505211541 27 158 3.2 8.0 0.00 0.00 0.00 33 1007.9
20260505211037 27 161 8.0 11.3 0.00 0.00 0.00 33 1007.9
20260505210534 27 176 19.3 32.2 0.00 0.00 0.00 32 1007.7
20260505210031 27 134 11.3 12.9 0.00 0.00 0.00 33 1007.8
20260505205529 27 267 8.0 11.3 0.00 0.00 0.00 34 1007.9
20260505205026 27 218 3.2 8.0 0.00 0.00 0.00 34 1008.0
20260505204524 27 142 6.4 8.0 0.00 0.00 0.00 34 1007.7
20260505204021 27 171 3.2 4.8 0.00 0.00 0.00 35 1008.0
20260505203517 27 225 8.0 9.7 0.00 0.00 0.00 35 1007.8
20260505203014 27 184 9.7 12.9 0.00 0.00 0.00 35 1007.9
20260505202510 27 141 3.2 4.8 0.00 0.00 0.00 34 1008.0
20260505202006 27 190 4.8 9.7 0.00 0.00 0.00 34 1007.8
20260505201504 27 72 8.0 12.9 0.00 0.00 0.00 35 1007.7
20260505201001 27 107 3.2 3.2 0.00 0.00 0.00 35 1008.0
20260505200459 27 120 14.5 20.9 0.00 0.00 0.00 34 1008.2
20260505195954 27 191 12.9 14.5 0.00 0.00 0.00 33 1008.1
20260505195452 27 183 11.3 12.9 0.00 0.00 0.00 35 1008.2
20260505194949 27 205 11.3 14.5 0.00 0.00 0.00 35 1008.1
20260505194446 27 236 12.9 20.9 0.00 0.00 0.00 35 1008.0
20260505193946 27 151 9.7 22.5 0.00 0.00 0.00 36 1008.5
20260505193444 27 145 4.8 8.0 0.00 0.00 0.00 37 1008.0
20260505192941 27 136 3.2 3.2 0.00 0.00 0.00 39 1008.4
20260505192440 27 128 4.8 8.0 0.00 0.00 0.00 35 1008.3
20260505191937 27 117 3.2 4.8 0.00 0.00 0.00 36 1008.6
20260505191436 27 145 9.7 11.3 0.00 0.00 0.00 38 1008.5
20260505190932 27 136 12.9 16.1 0.00 0.00 0.00 38 1008.7
20260505190427 27 184 8.0 9.7 0.00 0.00 0.00 40 1008.5
20260505185923 27 122 6.4 12.9 0.00 0.00 0.00 38 1008.9
20260505185421 26 108 3.2 8.0 0.00 0.00 0.00 39 1008.8
20260505184916 27 138 12.9 14.5 0.00 0.00 0.00 39 1008.8
20260505184413 27 216 8.0 11.3 0.00 0.00 0.00 38 1008.7
20260505183910 27 138 3.2 4.8 0.00 0.00 0.00 40 1009.4
20260505183407 27 234 1.6 4.8 0.00 0.00 0.00 39 1009.2
20260505182904 27 163 4.8 11.3 0.00 0.00 0.00 38 1009.3
20260505182401 26 131 6.4 11.3 0.00 0.00 0.00 38 1009.3
20260505181857 27 158 14.5 16.1 0.00 0.00 0.00 38 1009.3
20260505181355 26 163 14.5 17.7 0.00 0.00 0.00 40 1009.2
20260505180851 27 205 4.8 8.0 0.00 0.00 0.00 43 1009.4
20260505180347 26 131 8.0 9.7 0.00 0.00 0.00 43 1009.5
20260505175844 26 163 9.7 11.3 0.00 0.00 0.00 42 1009.2
20260505175340 26 161 19.3 27.4 0.00 0.00 0.00 43 1009.6
20260505174837 26 142 6.4 8.0 0.00 0.00 0.00 44 1009.6
20260505174335 26 133 4.8 9.7 0.00 0.00 0.00 44 1009.6
20260505173830 26 192 12.9 16.1 0.00 0.00 0.00 44 1009.4
20260505173327 26 138 9.7 14.5 0.00 0.00 0.00 44 1009.4
20260505172824 26 119 3.2 8.0 0.00 0.00 0.00 44 1009.8
20260505172322 27 116 6.4 9.7 0.00 0.00 0.00 43 1009.6
20260505171821 27 158 8.0 9.7 0.00 0.00 0.00 44 1009.6
20260505171319 27 222 6.4 11.3 0.00 0.00 0.00 41 1009.8
20260505170815 27 162 3.2 3.2 0.00 0.00 0.00 42 1009.7
20260505170312 26 158 3.2 4.8 0.00 0.00 0.00 43 1010.2
20260505165807 26 181 6.4 11.3 0.00 0.00 0.00 42 1010.1
20260505165306 26 330 3.2 3.2 0.00 0.00 0.00 45 1010.1
20260505164759 26 103 1.6 4.8 0.00 0.00 0.00 47 1009.9
20260505164256 26 180 3.2 4.8 0.00 0.00 0.00 43 1010.0
20260505163755 26 316 3.2 3.2 0.00 0.00 0.00 44 1010.3
20260505163253 26 214 6.4 8.0 0.00 0.00 0.00 43 1010.2